Home > Weather > Hanau > Past weeks

Flag for Germany Weather for the Past 2 Weeks in Hanau, Hesse, Germany

Now
39 °F

Partly cloudy.


Feels Like: 32 °F
Forecast: 34 / 43 °F
Wind: 13 mph from Southwest

Location: Frankfurt-M-Flughafen Airport

Current Time: Feb 11, 2016 at 4:21:01 AM

Latest Report: Feb 11, 2016 at 3:50 AM


Visibility: N/A

Pressure: 29.65 "Hg

Humidity: 87%

Dew point: 36 °F

Location of HanauLocation

Historic Weather in Hanau — Graph

°F

Hanau Temperature Yesterday

Maximum temperature yesterday: 41 °F (at 12:20 AM)
Minimum temperature yesterday: 37 °F (at 3:20 AM)
Average temperature yesterday: 40 °F

High & Low Weather Summary for the Past Weeks

 TemperatureHumidityPressure
High57 °F (Feb 1, 3:50 AM)100% (Jan 29, 2:20 AM)30.39 "Hg (Jan 29, 2:20 AM)
Low28 °F (Jan 29, 4:50 AM)54% (Jan 28, 12:50 PM)29.03 "Hg (Feb 9, 5:50 PM)
Average45 °F79%29.95 "Hg
* Reported Jan 27 2:20 AM — Feb 11 2:50 AM, Hanau, Weather by CustomWeather, © 2016

Note: Actual official high and low records may vary slightly from our data, if they occured in-between our weather recording intervals... More about our weather records

Advertising

Hanau Weather History for the Previous 24 Hours

 ConditionsComfort  
Time TempWeatherWind HumidityBarometerVisibility
2:50 AM
Thu, Feb 11
39 °FScattered showers. Passing clouds.9 mph87%29.65 "HgN/A
2:20 AM39 °FPassing clouds.12 mph87%29.62 "HgN/A
1:50 AM39 °FScattered showers. Partly cloudy.12 mph87%29.62 "HgN/A
1:20 AM39 °FSprinkles. Passing clouds.10 mph87%29.62 "HgN/A
12:50 AM39 °FScattered showers. Passing clouds.10 mph87%29.59 "HgN/A
12:20 AM39 °FSprinkles. Passing clouds.12 mph87%29.59 "HgN/A
11:50 PM
Wed, Feb 10
39 °FSprinkles. Passing clouds.10 mph87%29.59 "HgN/A
10:50 PM39 °FSprinkles. Partly cloudy.15 mph87%29.56 "HgN/A
10:20 PM41 °FSprinkles. Passing clouds.16 mph81%29.56 "HgN/A
9:50 PM41 °FScattered showers. Partly cloudy.13 mph81%29.53 "HgN/A
9:20 PM41 °FSprinkles. Partly cloudy.13 mph81%29.53 "HgN/A
8:50 PM41 °FSprinkles. Passing clouds.15 mph81%29.53 "HgN/A
8:20 PM41 °FPassing clouds.16 mph81%29.50 "HgN/A
7:50 PM41 °FPassing clouds.16 mph81%29.50 "HgN/A
7:20 PM41 °FPassing clouds.17 mph76%29.50 "HgN/A
6:50 PM41 °FPassing clouds.16 mph81%29.50 "HgN/A
6:20 PM41 °FPassing clouds.15 mph81%29.47 "HgN/A
5:50 PM41 °FLight rain. Partly cloudy.14 mph81%29.47 "HgN/A
5:20 PM41 °FBroken clouds.15 mph81%29.45 "HgN/A
4:50 PM41 °FLight rain. Partly sunny.15 mph81%29.45 "HgN/A
4:20 PM41 °FLight rain. Partly sunny.15 mph81%29.45 "HgN/A
3:50 PM41 °FPartly sunny.16 mph81%29.45 "HgN/A
3:20 PM41 °FPartly sunny.13 mph81%29.42 "HgN/A
2:50 PM41 °FPartly sunny.15 mph87%29.42 "HgN/A
2:20 PM39 °FLight rain. Broken clouds.15 mph87%29.42 "HgN/A
1:50 PM39 °FLight rain. Partly sunny.15 mph87%29.42 "HgN/A
1:20 PM37 °FLight rain. Partly sunny.18 mph93%29.42 "HgN/A
12:50 PM39 °FLight rain. Partly sunny.16 mph87%29.42 "HgN/A
12:20 PM39 °FLight rain. Broken clouds.18 mph81%29.42 "HgN/A
11:50 AM39 °FLight rain. Partly sunny.20 mph81%29.42 "HgN/A
11:20 AM39 °FSprinkles. Broken clouds.20 mph81%29.42 "HgN/A
10:50 AM41 °FScattered showers. Partly sunny.20 mph76%29.42 "HgN/A
10:20 AM39 °FLight rain. Partly sunny.17 mph81%29.39 "HgN/A
9:50 AM39 °FLight rain. Partly sunny.16 mph81%29.39 "HgN/A
9:20 AM39 °FLight rain. Partly sunny.14 mph75%29.39 "HgN/A
8:50 AM39 °FPartly sunny.13 mph75%29.39 "HgN/A
8:20 AM37 °FPartly sunny.12 mph81%29.39 "HgN/A
7:50 AM37 °FPassing clouds.16 mph81%29.36 "HgN/A
7:20 AM37 °FPassing clouds.16 mph81%29.36 "HgN/A
6:50 AM37 °FPassing clouds.13 mph87%29.36 "HgN/A
6:20 AM39 °FPassing clouds.12 mph81%29.36 "HgN/A
5:50 AM39 °FSprinkles. Partly cloudy.13 mph81%29.36 "HgN/A
5:20 AM39 °FPassing clouds.14 mph75%29.36 "HgN/A
4:20 AM39 °FPartly cloudy.14 mph75%29.33 "HgN/A
Weather by CustomWeather, © 2016

See weather overviewHow to use our weather pages